Weather in Repyevka

Russia / Orenburg Oblast     52°16′51″N   56°14′09″E
temp.,
°C
wind,
m/s
gust,
m/s
humid.,
%
clouds,
%
prec.,
mm/h
press.,
hPa
HPBL,
m
8 march, mon
mon823:00−18wsw23990 0.0 101520
02:00−16ssw349794 0.1 101563
05:00−16s489897 0.3 1014177
08:00−14s71495100 0.3 1012407
11:00−8ssw101694100 1.4 1011876
14:00−5sw121794100 1.3 10101080
17:00−4sw111695100 2.7 10101110
20:00−4sw91595100 1.5 1010822
9 march, tue
tue923:00−4ssw91595100 2.7 1010774
02:00−5ssw101695100 0.9 1009718
05:00−5sw91694100 1.5 1010646
08:00−5sw81395100 1.2 1010575
11:00−4sw71195100 1.8 1012513
14:00−3sw5794100 0.4 1012555
17:00−2ssw5695100 0.8 1011447
20:00−4sse4797100 0.5 1010215
10 march, wed
wed1023:00−4sse4997100 1.4 1008341
02:00−3s61097100 1.6 1005478
05:00−4sse61196100 3.8 1002494
08:00−4ssw81296100 2.7 1001586
11:00−9w101493100 3.3 1003910
14:00−9w101492100 0.8 1006854
17:00−11w91392100 1.1 1008675
20:00−13w71394100 0.3 1010529
11 march, thu
thu1123:00−15wnw61194100 0.7 1012347
02:00−21wnw579986 0.0 1013105
05:00−25wnw449876 0.0 101559
08:00−27wnw33989 0.0 101731
11:00−23wnw579470 0.0 1020270
14:00−21wnw679384 0.0 1021387
17:00−20wnw589490 0.0 1022423
20:00−25wnw449997 0.0 102564
12 march, fri
fri1223:00−26wnw2210084 0.0 102819
02:00−28nw121000 0.0 102919
05:00−28nnw121000 0.0 103019
08:00−28nw111000 0.0 103219
11:00−22nw22920 0.0 1032159
14:00−17wnw239067 0.0 1031251
17:00−16wnw359583 0.0 1030208
20:00−19nnw239887 0.0 103120